This demonstration page uses our WeatherBlox Daily Observations layout. Learn more.

Left ArrowRight Arrow

39.01783, -85.05884

Hourly Observations for March 16, 2015

Temp ( °F °C ) Dew Point ( °F °C ) Humidity (%) Winds ( mph kmh ) Pressure ( in mb ) Visibility ( mi km ) Precip ( " mm )
12:52 am 00:52 Cloudy 54 12.2 35 1.7 49 49 SW 6 9 30.14 1021 10 16 0.00 0.00
1:52 am 01:52 Mostly Cloudy 54 12.2 37 2.8 53 53 SW 8 13 30.11 1020 10 16 0.00 0.00
2:52 am 02:52 Cloudy 54 12.2 37 2.8 53 53 SW 10 17 30.10 1019 10 16 0.00 0.00
3:52 am 03:52 Mostly Cloudy 53 11.7 38 3.3 57 57 SW 8 13 30.11 1020 10 16 0.00 0.00
4:52 am 04:52 Mostly Cloudy 52 11.1 38 3.3 59 59 SW 8 13 30.09 1019 10 16 0.00 0.00
5:52 am 05:52 Cloudy 52 11.1 38 3.3 59 59 SW 10 17 30.07 1018 10 16 0.00 0.00
6:52 am 06:52 Cloudy 51 10.6 38 3.3 61 61 SW 7 11 30.07 1018 10 16 0.00 0.00
7:52 am 07:52 Partly Cloudy 50 10 37 3 62 62 SW 7 11 30.09 1019 10 16 0.00 0.00
8:52 am 08:52 Mostly Cloudy 53 11.7 37 2.8 55 55 SW 12 19 30.08 1019 10 16 0.00 0.00
9:52 am 09:52 Mostly Cloudy 57 13.9 37 2.8 47 47 WSW 9 15 30.08 1019 10 16 0.00 0.00
10:52 am 10:52 Mostly Cloudy 62 16.7 39 3.9 43 43 W 13 20 30.08 1019 10 16 0.00 0.00
11:52 am 11:52 Mostly Cloudy 67 19.4 40 4.4 37 37 W 13 20 30.06 1018 10 16 0.00 0.00
12:52 pm 12:52 Mostly Cloudy 69 20.6 40 4.4 35 35 W 15 24 30.06 1018 10 16 0.00 0.00
1:52 pm 13:52 Mostly Cloudy 72 22.2 40 4.4 31 31 W 13 20 30.03 1017 10 16 0.00 0.00
2:52 pm 14:52 Mostly Cloudy 73 22.8 39 3.9 29 29 WSW 12 19 29.99 1016 10 16 0.00 0.00
3:52 pm 15:52 Mostly Cloudy 74 23.3 40 4.4 29 29 SW 13 20 29.96 1015 10 16 0.00 0.00
4:52 pm 16:52 Mostly Cloudy 75 23.9 39 3.9 27 27 WSW 14 22 29.94 1014 10 16 0.00 0.00
5:52 pm 17:52 Cloudy 74 23.3 41 5 31 31 SW 13 20 29.93 1014 10 16 0.00 0.00
6:52 pm 18:52 Mostly Cloudy 73 22.8 42 5.6 33 33 WSW 8 13 29.92 1013 10 16 0.00 0.00
7:52 pm 19:52 Mostly Cloudy 69 20.6 42 5.6 38 38 SW 6 9 29.90 1013 10 16 0.00 0.00
8:52 pm 20:52 Mostly Cloudy 66 18.9 42 5.6 42 42 SW 7 11 29.90 1013 10 16 0.00 0.00
9:52 pm 21:52 Mostly Cloudy 66 18.9 44 6.7 45 45 SW 12 19 29.90 1013 10 16 0.00 0.00
10:52 pm 22:52 Partly Cloudy 64 17.8 44 6.7 48 48 SW 8 13 29.89 1012 10 16 0.00 0.00
11:52 pm 23:52 Mostly Cloudy 64 17.8 45 7.2 50 50 SW 12 19 29.88 1012 10 16 0.00 0.00

Powered by AerisWeather